Location: Raleigh
(35.7720°N, 78.6390°W)
Time: 03:42:25
(UTC-04:00)

JAS-2 - Visible Passes

Search period start: 23 April 2014 00:00
Search period end: 03 May 2014 00:00
Orbit: 799 x 1322 km, 98.5° (Epoch: 22 April)

Date Brightness Start Highest point End Pass type
(mag) Time Alt. Az. Time Alt. Az. Time Alt. Az.
23 Apr 10.7 20:14:28 10° S 20:19:54 41° W 20:24:56 10° NNW visible
24 Apr 12.1 21:07:38 10° WSW 21:10:16 13° W 21:12:48 10° WNW visible
26 Apr 12.0 21:02:24 10° SW 21:05:19 14° W 21:08:09 10° WNW visible
28 Apr 12.0 20:57:11 10° SW 21:00:22 16° W 21:03:27 10° WNW visible
30 Apr 11.9 20:52:01 10° SW 20:55:25 17° W 20:58:43 10° NW visible
02 May 11.8 20:46:51 10° SW 20:50:27 18° W 20:53:58 10° NW visible
